O'Neill, NE

5:48 AM CDT on September 25, 2017 (GMT -0500)
The O'Neill Municipal-Baker

Weather History for KONL - December, 2014

Change the Weather History Date:

Tuesday, December 23, 2014

  Actual Average Record
Temperature  
Mean Temperature 30 °F -  
Max Temperature 33 °F 29 °F 67 °F (1964)
Min Temperature 27 °F 10 °F -31 °F (1989)
Degree Days  
Heating Degree Days 34    
Moisture  
Dew Point 31 °F    
Average Humidity 97    
Maximum Humidity 100    
Minimum Humidity 91    
Precipitation  
Precipitation 0.02 in - - ()
Sea Level Pressure  
Sea Level Pressure 29.84 in    
Wind  
Wind Speed 21 mph (NNW)    
Max Wind Speed 28 mph    
Max Gust Speed 38 mph    
Visibility 4 miles    
Events Snow    
Averages and records for this station are not official NWS values.
T = Trace of Precipitation, MM = Missing Value Source: NWS Daily Summary

Daily Weather History Graph

Daily Weather History Graph

Search for Another Location

Airport or City:

Trip Planner

Search our weather history database for the weather conditions in past years. The results will help you decide how hot, cold, wet, or windy it might be!

Date:

Astronomy

Dec. 23, 2014 Rise Set
Actual Time 8:01 AM CST 5:05 PM CST
Civil Twilight 7:29 AM CST 5:38 PM CST
Nautical Twilight 6:54 AM CST 6:13 PM CST
Astronomical Twilight 6:20 AM CST 6:47 PM CST
Moon 9:05 AM CST (12/23) 7:25 PM CST (12/23)
Length of Visible Light 10h 08m
Length of Day
9h 03m
Waxing Crescent, 4% of the Moon is Illuminated
Dec 23
Waxing Crescent
Dec 28
First Quarter
Jan 4
Full
Jan 13
Last Quarter
Jan 20
New

Hourly Weather History & Observations

Time (CST) Temp. Windchill Dew Point Humidity Pressure Visibility Wind Dir Wind Speed Gust Speed Precip Events Conditions
12:15 AM 31.6 °F 19.3 °F 31.1 °F 98% 29.54 in 3.0 mi NW 20.7 mph 26.5 mph N/A Snow Light Snow
12:35 AM 31.6 °F 19.7 °F 31.1 °F 98% 29.54 in 3.0 mi NW 19.6 mph 25.3 mph N/A Snow Light Snow
12:55 AM 31.6 °F 20.0 °F 31.1 °F 98% 29.54 in 5.0 mi NW 18.4 mph 23.0 mph N/A   Overcast
1:15 AM 31.6 °F 19.3 °F 31.1 °F 98% 29.54 in 5.0 mi NW 20.7 mph 26.5 mph N/A   Overcast
1:35 AM 31.8 °F 19.6 °F 31.1 °F 97% 29.54 in 4.0 mi NW 20.7 mph 26.5 mph N/A   Overcast
1:55 AM 32.0 °F 19.2 °F 31.1 °F 96% 29.55 in 4.0 mi NW 23.0 mph 27.6 mph N/A Snow Light Snow
2:15 AM 32.0 °F 19.5 °F 31.5 °F 98% 29.56 in 4.0 mi NW 21.9 mph 27.6 mph N/A Snow Light Snow
2:35 AM 32.0 °F 19.2 °F 31.6 °F 99% 29.57 in 2.0 mi NW 23.0 mph 27.6 mph N/A Snow Light Snow
2:55 AM 32.0 °F 20.1 °F 31.6 °F 99% 29.58 in 1.8 mi NW 19.6 mph 24.2 mph N/A Snow Light Snow
3:15 AM 31.8 °F 19.9 °F 31.5 °F 99% 29.59 in 1.8 mi NW 19.6 mph 26.5 mph N/A Snow Light Snow
3:35 AM 31.8 °F 19.9 °F 31.5 °F 99% 29.60 in 2.5 mi NW 19.6 mph 25.3 mph N/A Snow Light Snow
3:55 AM 32.0 °F 20.5 °F 31.6 °F 99% 29.61 in 1.8 mi NW 18.4 mph - N/A Snow Light Snow
4:15 AM 32.0 °F 20.5 °F 31.8 °F 99% 29.62 in 2.0 mi NW 18.4 mph 25.3 mph N/A Snow Light Snow
4:35 AM 32.0 °F 20.5 °F 32.0 °F 100% 29.62 in 1.8 mi NW 18.4 mph - N/A Snow Light Snow
4:55 AM 32.0 °F 20.8 °F 32.0 °F 100% 29.63 in 1.8 mi NW 17.3 mph 21.9 mph N/A Snow Light Snow
5:15 AM 32.0 °F 20.5 °F 32.0 °F 100% 29.64 in 2.5 mi NNW 18.4 mph 21.9 mph N/A Snow Light Snow
5:35 AM 32.0 °F 20.5 °F 32.0 °F 100% 29.66 in 2.5 mi NNW 18.4 mph 21.9 mph N/A Snow Light Snow
5:55 AM 32.2 °F 20.7 °F 32.0 °F 99% 29.67 in 3.0 mi NNW 18.4 mph 24.2 mph N/A Snow Light Snow
6:15 AM 32.4 °F 21.3 °F 32.2 °F 99% 29.69 in 1.8 mi NNW 17.3 mph - N/A Snow Light Snow
6:35 AM 32.7 °F 21.4 °F 32.4 °F 99% 29.70 in 5.0 mi NNW 18.4 mph 23.0 mph N/A Snow Light Snow
6:55 AM 32.9 °F 21.6 °F 32.9 °F 100% 29.71 in 4.0 mi NNW 18.4 mph 23.0 mph N/A Snow Light Snow
7:15 AM 32.9 °F 21.6 °F 32.9 °F 100% 29.73 in 2.0 mi NNW 18.4 mph 24.2 mph N/A Snow Light Snow
7:35 AM 32.9 °F 21.3 °F 32.9 °F 100% 29.74 in 2.5 mi NNW 19.6 mph 27.6 mph N/A Snow Light Snow
7:55 AM 32.9 °F 21.3 °F 32.5 °F 99% 29.75 in 3.0 mi NNW 19.6 mph - N/A Snow Light Snow
8:15 AM 32.9 °F 21.0 °F 32.4 °F 98% 29.76 in 2.5 mi NNW 20.7 mph 26.5 mph N/A Snow Light Snow
8:35 AM 32.9 °F 21.6 °F 32.4 °F 98% 29.78 in 1.0 mi NNW 18.4 mph 26.5 mph N/A Snow Light Snow
8:55 AM 32.9 °F 21.3 °F 32.4 °F 98% 29.80 in 1.0 mi NNW 19.6 mph - N/A Snow Light Snow
9:15 AM 32.7 °F 20.4 °F 32.4 °F 99% 29.81 in 1.0 mi NNW 21.9 mph 26.5 mph N/A Snow Light Snow
9:35 AM 32.9 °F 20.7 °F 32.4 °F 98% 29.82 in 1.0 mi NNW 21.9 mph 28.8 mph N/A Snow Light Snow
9:55 AM 32.9 °F 21.0 °F 32.4 °F 98% 29.84 in 2.5 mi NNW 20.7 mph 25.3 mph N/A Snow Light Snow
10:15 AM 33.1 °F 20.9 °F 32.5 °F 98% 29.85 in 2.0 mi NNW 21.9 mph - N/A Snow Light Snow
10:35 AM 33.1 °F 21.9 °F 32.5 °F 98% 29.87 in 1.8 mi NNW 18.4 mph - N/A Snow Light Snow
10:55 AM 33.3 °F 20.3 °F 32.5 °F 97% 29.88 in 2.5 mi NNW 25.3 mph 28.8 mph N/A Snow Light Snow
11:15 AM 33.4 °F 21.1 °F 32.9 °F 98% 29.88 in 1.2 mi NNW 23.0 mph 31.1 mph N/A Snow Light Snow
11:35 AM 33.4 °F 21.1 °F 32.9 °F 98% 29.88 in 1.5 mi NNW 23.0 mph 26.5 mph N/A Snow Light Snow
11:55 AM 33.6 °F 21.3 °F 32.9 °F 97% 29.89 in 1.5 mi NNW 23.0 mph 28.8 mph N/A Snow Light Snow
12:15 PM 33.3 °F 20.3 °F 32.4 °F 96% 29.89 in 2.5 mi NNW 25.3 mph 28.8 mph N/A Snow Light Snow
12:35 PM 33.1 °F 20.1 °F 32.0 °F 96% 29.89 in 5.0 mi NNW 25.3 mph 33.4 mph N/A Snow Light Snow
12:55 PM 33.1 °F 19.8 °F 32.0 °F 96% 29.89 in 5.0 mi NNW 26.5 mph 33.4 mph N/A   Overcast
1:15 PM 33.1 °F 19.6 °F 32.0 °F 96% 29.90 in 2.5 mi NNW 27.6 mph 34.5 mph 0.01 in Snow Light Snow
1:35 PM 32.9 °F 19.3 °F 32.0 °F 96% 29.90 in 2.0 mi NNW 27.6 mph 36.8 mph 0.01 in   Overcast
1:55 PM 32.9 °F 19.8 °F 32.0 °F 96% 29.91 in 2.5 mi NNW 25.3 mph 36.8 mph 0.01 in Snow Light Snow
2:15 PM 32.5 °F 19.1 °F 31.6 °F 96% 29.92 in 2.5 mi NNW 26.5 mph 34.5 mph 0.01 in Snow Light Snow
2:35 PM 32.5 °F 19.1 °F 31.6 °F 96% 29.93 in 5.0 mi NNW 26.5 mph 32.2 mph 0.01 in   Overcast
2:55 PM 32.2 °F 19.7 °F 31.1 °F 96% 29.93 in 7.0 mi NW 21.9 mph 29.9 mph 0.01 in   Overcast
3:15 PM 32.0 °F 19.5 °F 31.1 °F 96% 29.95 in 4.0 mi NNW 21.9 mph 31.1 mph N/A Snow Light Snow
3:35 PM 32.0 °F 18.6 °F 30.7 °F 95% 29.96 in 4.0 mi NNW 25.3 mph 32.2 mph N/A   Overcast
3:55 PM 32.0 °F 19.5 °F 30.7 °F 95% 29.96 in 2.5 mi NNW 21.9 mph 31.1 mph N/A Snow Light Snow
4:15 PM 31.8 °F 19.0 °F 30.7 °F 96% 29.97 in 2.0 mi NNW 23.0 mph 32.2 mph N/A Snow Light Snow
4:35 PM 31.5 °F 17.4 °F 30.4 °F 96% 29.97 in 1.8 mi NNW 27.6 mph 32.2 mph N/A Snow Light Snow
4:55 PM 31.1 °F 18.0 °F 30.0 °F 96% 29.98 in 2.5 mi NW 23.0 mph 38.0 mph N/A   Overcast
5:15 PM 30.7 °F 16.4 °F 29.7 °F 96% 29.99 in 3.0 mi NW 27.6 mph 33.4 mph N/A   Overcast
5:35 PM 30.6 °F 17.6 °F 29.3 °F 95% 30.00 in 4.0 mi NW 21.9 mph 29.9 mph N/A Snow Light Snow
5:55 PM 30.2 °F 16.8 °F 28.9 °F 95% 30.00 in 5.0 mi NW 23.0 mph 34.5 mph N/A   Overcast
6:15 PM 30.2 °F 17.1 °F 28.8 °F 94% 30.01 in 7.0 mi NNW 21.9 mph 33.4 mph N/A   Overcast
6:35 PM 30.2 °F 15.9 °F 28.4 °F 93% 30.02 in 10.0 mi NNW 26.5 mph 33.4 mph N/A   Overcast
6:55 PM 30.2 °F 16.8 °F 28.4 °F 93% 30.02 in 10.0 mi NNW 23.0 mph 33.4 mph N/A   Overcast
7:20 PM 30.2 °F 16.5 °F 28.4 °F 93% 30.02 in 7.0 mi NW 24.2 mph 31.1 mph N/A   Overcast
7:35 PM 30.0 °F 16.3 °F 28.4 °F 94% 30.02 in 7.0 mi NW 24.2 mph 28.8 mph N/A   Overcast
7:55 PM 30.0 °F 16.6 °F 28.2 °F 93% 30.02 in 7.0 mi NW 23.0 mph 32.2 mph N/A   Overcast
8:15 PM 29.8 °F 15.7 °F 28.2 °F 94% 30.02 in 10.0 mi NNW 25.3 mph 32.2 mph N/A   Overcast
8:35 PM 29.8 °F 16.3 °F 27.9 °F 92% 30.03 in 10.0 mi NNW 23.0 mph 32.2 mph N/A   Overcast
8:55 PM 29.8 °F 16.0 °F 27.7 °F 92% 30.03 in 10.0 mi NW 24.2 mph 31.1 mph N/A   Overcast
9:15 PM 29.8 °F 16.3 °F 27.5 °F 91% 30.04 in 10.0 mi NW 23.0 mph 31.1 mph N/A   Overcast
9:35 PM 29.5 °F 15.5 °F 27.7 °F 93% 30.04 in 10.0 mi NNW 24.2 mph 29.9 mph N/A   Overcast
9:55 PM 29.3 °F 16.2 °F 27.7 °F 94% 30.04 in 10.0 mi NNW 20.7 mph 25.3 mph N/A   Overcast
10:15 PM 29.1 °F 16.4 °F 27.5 °F 94% 30.04 in 10.0 mi NNW 19.6 mph 26.5 mph N/A   Overcast
10:35 PM 28.9 °F 15.4 °F 27.3 °F 94% 30.04 in 10.0 mi NNW 21.9 mph 25.3 mph N/A   Overcast
10:55 PM 28.9 °F 16.5 °F 27.5 °F 94% 30.04 in 10.0 mi NNW 18.4 mph 23.0 mph N/A   Overcast
11:15 PM 28.6 °F 15.3 °F 26.6 °F 92% 30.04 in 10.0 mi NNW 20.7 mph 25.3 mph N/A   Overcast
11:35 PM 28.0 °F 15.3 °F 26.6 °F 94% 30.04 in 10.0 mi NNW 18.4 mph 23.0 mph N/A   Overcast
11:55 PM 27.9 °F 15.1 °F 26.6 °F 95% 30.03 in 10.0 mi NNW 18.4 mph - N/A   Overcast